Regional Weather Roundup
Issued by NWS

Home | Current Version | Previous Version | Text Only | Print | Product List | Glossary On
Versions: 1 2 3 4 5 6 7 8 9 10 11 12 13 14 15 16 17 18 19 20 21 22 23 24 25 26 27 28 29 30 31 32 33 34 35 36 37 38 39 40 41 42 43 44 45 46 47 48 49 50
000
ASUS43 KLMK 240702
RWRKY
KENTUCKY REGIONAL WEATHER ROUNDUP
NATIONAL WEATHER SERVICE LOUISVILLE KY
200 AM EST WED JAN 24 2018

NOTE "FAIR" INDICATES FEW OR NO CLOUDS BELOW 12,000 FEET
WITH NO SIGNIFICANT WEATHER AND/OR OBSTRUCTIONS TO VISIBILITY.

KYZ001>023-026-027-061>063-070>075-240800-
WESTERN AND SOUTH CENTRAL KENTUCKY

CITY           SKY/WX    TMP DP  RH WIND       PRES   REMARKS
PADUCAH        FAIR      29  25  85 SW3       30.26F
HENDERSON      CLOUDY    35  27  72 NW8       30.27F WCI  29
OWENSBORO      LGT RAIN  34  29  82 W5        30.27S WCI  30
HOPKINSVILLE   CLOUDY    37  28  68 CALM      30.26F
BOWLING GREEN  CLOUDY    37  28  70 VRB3      30.27S
GLASGOW        NOT AVBL
$$

KYZ024-025-028>034-038-045-046-053-240800-
NORTH CENTRAL KENTUCKY

CITY           SKY/WX    TMP DP  RH WIND       PRES   REMARKS
LOUISVILLE/SDF DRIZZLE   34  29  82 W9        30.23R WCI  27
LOUISVILLE/LOU CLOUDY    34  30  85 W7        30.24R WCI  28
FORT KNOX      NOT AVBL
$$

KYZ035>037-039>044-047>052-055>060-089>105-240800-
NORTHEAST KENTUCKY

CITY           SKY/WX    TMP DP  RH WIND       PRES   REMARKS
LEXINGTON      CLOUDY    33  26  75 W9        30.20R WCI  25
COVINGTON      CLOUDY    32  28  85 NW16      30.15R WCI  21
FRANKFORT      CLOUDY    33  26  75 W6        30.20R WCI  28
$$

KYZ054-064>069-076>088-106>120-240800-
SOUTHEAST KENTUCKY

CITY           SKY/WX    TMP DP  RH WIND       PRES   REMARKS
JACKSON        LGT SNOW  32  30  92 W8        30.15R FOG     WCI  25
LONDON         CLOUDY    33  27  78 W7        30.20R WCI  27
SOMERSET       NOT AVBL
MIDDLESBORO    CLOUDY    35  31  85 W6        30.20R WCI  30
MONTICELLO     NOT AVBL
$$




USA.gov is the U.S. government's official web portal to all federal, state and local government web resources and services.